Change the Weather History Date:

Saturday, July 13, 2013

  Actual Average Record
Temperature  
Mean Temperature 65 °F 70 °F  
Max Temperature 78 °F 83 °F 102 °F (2002)
Min Temperature 52 °F 56 °F 43 °F (1881)
Degree Days  
Heating Degree Days 0 1  
Month to date heating degree days 0 20  
Since 1 June heating degree days 140 156  
Since 1 July heating degree days 0 20  
Cooling Degree Days 0 6  
Month to date cooling degree days 98 57  
Year to date cooling degree days 176 120  
Since 1 June cooling degree days 146 106  
Growing Degree Days 16 (Base 50)    
Moisture  
Dew Point 35 °F    
Average Humidity 36    
Maximum Humidity 51    
Minimum Humidity 21    
Precipitation  
Precipitation 0.00 in 0.02 in 0.96 in (1983)
Month to date precipitation 0.00 0.32  
Year to date precipitation 6.79 9.20  
Snow  
Snow 0.00 in 0.00 in 0.00 in (2002)
Month to date snowfall 0.0 0.0  
Since 1 June snowfall 0.0 0.0  
Since 1 July snowfall 0.0 0.0  
Snow Depth 0.00 in    
Sea Level Pressure  
Sea Level Pressure 30.06 in    
Wind  
Wind Speed 5 mph (SW)    
Max Wind Speed 14 mph    
Max Gust Speed 18 mph    
Visibility 10 miles    
Events      
T = Trace of Precipitation, MM = Missing Value Source: NWS Daily Summary

Daily Weather History Graph

Daily Weather History Graph

Search for Another Location

Airport or City:

Trip Planner

Search our weather history database for the weather conditions in past years. The results will help you decide how hot, cold, wet, or windy it might be!

Date:

Astronomy

Jul. 13, 2013 Rise Set
Actual Time 5:06 AM PDT 8:45 PM PDT
Civil Twilight 4:27 AM PDT 9:24 PM PDT
Nautical Twilight 3:34 AM PDT 10:16 PM PDT
Astronomical Twilight 2:21 AM PDT 11:28 PM PDT
Moon 10:54 AM PDT (7/13) 10:58 PM PDT (7/13)
Length of Visible Light 16h 56m
Length of Day
15h 38m
Waxing Crescent, 26% of the Moon is Illuminated
Jul 13
Waxing Crescent
Jul 15
First Quarter
Jul 22
Full
Jul 29
Last Quarter
Aug 6
New

Hourly Weather History & Observations

Time (PDT) Temp. Dew Point Humidity Pressure Visibility Wind Dir Wind Speed Gust Speed Precip Events Conditions
12:53 AM 55.9 °F 37.0 °F 49% 29.96 in 10.0 mi West 8.1 mph - N/A   Mostly Cloudy
1:53 AM 55.9 °F 35.1 °F 45% 29.95 in 10.0 mi SW 3.5 mph - N/A   Overcast
2:53 AM 57.0 °F 34.0 °F 42% 29.97 in 10.0 mi WSW 5.8 mph - N/A   Overcast
3:53 AM 57.9 °F 35.1 °F 42% 29.98 in 10.0 mi SW 4.6 mph - N/A   Overcast
4:53 AM 59.0 °F 35.1 °F 41% 29.99 in 10.0 mi Calm Calm - N/A   Mostly Cloudy
5:53 AM 55.0 °F 36.0 °F 49% 30.02 in 10.0 mi South 5.8 mph - N/A   Mostly Cloudy
6:53 AM 54.0 °F 35.1 °F 49% 30.07 in 10.0 mi SW 9.2 mph - N/A   Scattered Clouds
7:53 AM 55.9 °F 36.0 °F 47% 30.09 in 10.0 mi South 6.9 mph - N/A   Partly Cloudy
8:53 AM 60.1 °F 37.9 °F 44% 30.10 in 10.0 mi South 6.9 mph - N/A   Partly Cloudy
9:53 AM 64.0 °F 39.0 °F 40% 30.11 in 10.0 mi SSW 10.4 mph - N/A   Partly Cloudy
10:53 AM 66.9 °F 37.9 °F 34% 30.11 in 10.0 mi SW 10.4 mph - N/A   Partly Cloudy
11:53 AM 69.1 °F 36.0 °F 30% 30.12 in 10.0 mi Variable 3.5 mph 16.1 mph N/A   Partly Cloudy
12:53 PM 71.1 °F 35.1 °F 27% 30.12 in 10.0 mi SSW 6.9 mph - N/A   Partly Cloudy
1:53 PM 73.9 °F 34.0 °F 23% 30.11 in 10.0 mi WSW 9.2 mph 17.3 mph N/A   Partly Cloudy
2:53 PM 73.9 °F 35.1 °F 24% 30.10 in 10.0 mi Calm Calm - N/A   Partly Cloudy
3:53 PM 75.0 °F 34.0 °F 22% 30.08 in 10.0 mi West 8.1 mph - N/A   Partly Cloudy
4:53 PM 75.9 °F 33.1 °F 21% 30.07 in 10.0 mi WSW 8.1 mph - N/A   Partly Cloudy
5:53 PM 75.0 °F 32.0 °F 21% 30.07 in 10.0 mi Calm Calm - N/A   Partly Cloudy
6:53 PM 75.9 °F 34.0 °F 22% 30.07 in 10.0 mi Calm Calm - N/A   Scattered Clouds
7:53 PM 73.9 °F 32.0 °F 21% 30.06 in 10.0 mi North 6.9 mph - N/A   Scattered Clouds
8:53 PM 72.0 °F 33.1 °F 24% 30.07 in 10.0 mi NNE 3.5 mph - N/A   Scattered Clouds
9:53 PM 68.0 °F 36.0 °F 31% 30.08 in 10.0 mi NNE 3.5 mph - N/A   Scattered Clouds
10:53 PM 69.1 °F 36.0 °F 30% 30.07 in 10.0 mi East 3.5 mph - N/A   Clear
11:53 PM 63.0 °F 37.0 °F 38% 30.07 in 10.0 mi Calm Calm - N/A   Clear